Amarillo, TX

10:41 PM CST on December 13, 2019 (GMT -0600)
Amarillo International

Weather History for KAMA - June, 2019

Change the Weather History Date:

Tuesday, June 4, 2019

  Actual Average Record
Temperature  
Mean Temperature 72 °F 71 °F  
Max Temperature 84 °F 85 °F 100 °F (1933)
Min Temperature 59 °F 58 °F 43 °F (1919)
Degree Days  
Heating Degree Days 0 1  
Month to date heating degree days 0 4  
Since 1 June heating degree days 0 4  
Since 1 July heating degree days 4102 4175  
Cooling Degree Days 7 7  
Month to date cooling degree days 23 26  
Year to date cooling degree days 85 151  
Since 1 June cooling degree days 23 26  
Growing Degree Days 22 (Base 50)    
Moisture  
Dew Point 59 °F    
Average Humidity 65    
Maximum Humidity 87    
Minimum Humidity 43    
Precipitation  
Precipitation 0.34 in 0.11 in 1.56 in (1923)
Month to date precipitation 1.59 0.45  
Year to date precipitation 9.37 6.81  
Snow  
Snow 0.00 in 0.00 in 0.00 in ()
Month to date snowfall 0.0 0.0  
Since 1 June snowfall 0.0 0.0  
Since 1 July snowfall 8.1 17.8  
Snow Depth 0.00 in    
Sea Level Pressure  
Sea Level Pressure 29.88 in    
Wind  
Wind Speed 14 mph (South)    
Max Wind Speed 35 mph    
Max Gust Speed 45 mph    
Visibility 10 miles    
Events Rain , Thunderstorm    
T = Trace of Precipitation, MM = Missing Value Source: NWS Daily Summary

Daily Weather History Graph

Daily Weather History Graph

Search for Another Location

Airport or City:

Astronomy

Jun. 04, 2019 Rise Set
Actual Time 6:32 AM CDT 8:57 PM CDT
Civil Twilight 6:03 AM CDT 9:27 PM CDT
Nautical Twilight 5:27 AM CDT 10:03 PM CDT
Astronomical Twilight 4:47 AM CDT 10:43 PM CDT
Moon 7:42 AM CDT (6/4) 10:28 PM CDT (6/4)
Length of Visible Light 15h 24m
Length of Day
14h 25m
New Moon, 2% of the Moon is Illuminated
Jun 4
New Moon
Jun 10
First Quarter
Jun 17
Full
Jun 25
Last Quarter
Jul 2
New

Hourly Weather History & Observations

Time (CDT) Temp. Heat Index Dew Point Humidity Pressure Visibility Wind Dir Wind Speed Gust Speed Precip Events Conditions
12:15 AM 73.0 °F - 64.0 °F 73% 30.01 in 10.0 mi South 12.7 mph - N/A Thunderstorm Partly Cloudy
12:38 AM 72.0 °F - 64.0 °F 76% 30.01 in 10.0 mi South 9.2 mph - N/A   Mostly Cloudy
12:53 AM 72.0 °F - 64.0 °F 76% 29.86 in 10.0 mi South 13.8 mph 20.7 mph N/A   Scattered Clouds
1:27 AM 66.9 °F - 57.9 °F 73% 29.99 in 10.0 mi WSW 16.1 mph 34.5 mph N/A Thunderstorm Mostly Cloudy
1:38 AM 68.0 °F - 55.0 °F 63% 29.99 in 10.0 mi SW 24.2 mph 34.5 mph N/A Thunderstorm Thunderstorm
1:53 AM 66.9 °F - 55.9 °F 68% 29.84 in 10.0 mi SSW 24.2 mph 28.8 mph N/A Thunderstorm Mostly Cloudy
2:18 AM 64.0 °F - 57.0 °F 78% 30.01 in 10.0 mi SSW 20.7 mph 32.2 mph 0.00 in Rain Light Rain
2:53 AM 63.0 °F - 57.0 °F 81% 29.86 in 6.0 mi South 16.1 mph - 0.08 in Rain , Thunderstorm Rain
3:07 AM 63.0 °F - 57.0 °F 81% 29.98 in 8.0 mi SSE 18.4 mph - 0.05 in Rain , Thunderstorm Light Rain
3:14 AM 63.0 °F - 57.0 °F 81% 29.98 in 9.0 mi ESE 16.1 mph - 0.06 in Rain Light Rain
3:29 AM 64.0 °F - 55.0 °F 73% 29.95 in 10.0 mi SE 16.1 mph 26.5 mph 0.07 in Rain Light Rain
3:53 AM 66.9 °F - 53.1 °F 61% 29.81 in 10.0 mi ESE 17.3 mph - 0.07 in   Clear
4:53 AM 60.1 °F - 55.0 °F 83% 29.84 in 10.0 mi South 11.5 mph 18.4 mph N/A   Clear
5:53 AM 59.0 °F - 55.0 °F 87% 29.86 in 10.0 mi WNW 8.1 mph - N/A   Clear
6:53 AM 60.1 °F - 55.9 °F 86% 29.86 in 10.0 mi NNW 5.8 mph - N/A   Clear
7:53 AM 63.0 °F - 57.9 °F 84% 29.89 in 10.0 mi West 4.6 mph - N/A   Clear
8:53 AM 66.9 °F - 60.1 °F 79% 29.91 in 10.0 mi South 4.6 mph - N/A   Clear
9:53 AM 69.1 °F - 57.9 °F 68% 29.92 in 10.0 mi South 5.8 mph - N/A   Clear
10:53 AM 75.0 °F - 59.0 °F 57% 29.90 in 10.0 mi South 10.4 mph - N/A   Clear
11:53 AM 77.0 °F - 59.0 °F 54% 29.88 in 10.0 mi SSW 19.6 mph 27.6 mph N/A   Clear
12:53 PM 79.0 °F - 60.1 °F 52% 29.85 in 10.0 mi SSW 19.6 mph 26.5 mph N/A   Clear
1:53 PM 80.1 °F 81.1 °F 61.0 °F 52% 29.85 in 10.0 mi SSW 16.1 mph 25.3 mph N/A   Clear
2:53 PM 82.0 °F 82.7 °F 61.0 °F 49% 29.84 in 10.0 mi South 16.1 mph 23.0 mph N/A   Clear
3:53 PM 82.9 °F 83.3 °F 61.0 °F 47% 29.81 in 10.0 mi South 12.7 mph - N/A   Clear
4:53 PM 82.9 °F 83.7 °F 62.1 °F 49% 29.80 in 10.0 mi South 16.1 mph - N/A   Partly Cloudy
5:53 PM 84.0 °F 83.8 °F 59.0 °F 43% 29.78 in 10.0 mi South 16.1 mph - N/A   Clear
6:53 PM 80.1 °F 81.5 °F 63.0 °F 56% 29.79 in 10.0 mi SSE 17.3 mph 24.2 mph N/A   Clear
7:53 PM 78.1 °F - 62.1 °F 58% 29.78 in 10.0 mi South 15.0 mph - N/A   Clear
8:53 PM 73.9 °F - 64.0 °F 71% 29.79 in 10.0 mi SSE 12.7 mph - N/A   Clear
9:53 PM 72.0 °F - 64.9 °F 78% 29.78 in 10.0 mi SSE 12.7 mph - N/A   Clear
10:53 PM 70.0 °F - 64.9 °F 84% 29.83 in 10.0 mi SSE 9.2 mph - N/A   Clear
11:38 PM 64.0 °F - 54.0 °F 70% 30.05 in 10.0 mi West 24.2 mph 40.3 mph N/A Thunderstorm Mostly Cloudy
11:53 PM 60.1 °F - 55.9 °F 86% 29.93 in 10.0 mi NW 23.0 mph 39.1 mph 0.00 in Rain , Thunderstorm Light Thunderstorms and Rain